Location: Chamerau
(49.1969°N, 12.7525°E)
Time: 06:02:54
(UTC+00:00)

CZ-2C R/B - Pass Details

Date: 18 September 2020
Orbit: 704 x 908 km, 98.1° (Epoch: 27 October)

Event Time Altitude Azimuth Distance (km) Brightness Sun altitude
Rises 17:56:42 0° 166° (SSE) 3,247 6.0 -7.6°
Reaches altitude 10° 17:58:56 10° 166° (SSE) 2,353 5.3 -8.0°
Maximum altitude 18:04:10 85° 256° (WSW) 835 3.3 -8.8°
Drops below altitude 10° 18:09:45 10° 345° (NNW) 2,504 6.1 -9.7°
Sets 18:12:13 0° 346° (NNW) 3,472 6.8 -10.1°
